sat.trackr.live / text

‹ back to catalog

STARLINK-30114

NORAD 56826 · 2023-079D

PAYLOAD ACTIVE UNKNOWN

§ Identity

Operator
Country
US
Launch date
2023-06-04
Launch site
AFETR
Launch vehicle
Mass (kg)
RCS (m²)

Purposes: comms

External: N2YO · Heavens-Above · Gunter

§ Orbital elements

Epoch: 2026-05-25T00:58:33.893184Z

Period
94.27 min
Inclination
43.0019°
Eccentricity
0.0001147
Mean motion
15.27576562 rev/d
Perigee alt
482.3 km
Apogee alt
483.8 km
Semi-major
6,861.2 km
B*
5.7244e-5
RAAN
35.8047°
Arg perigee
262.2749°
Mean anomaly
97.7972°
Rev number
16,487

§ Raw data

STARLINK-301141 56826U 23079D   26145.04067006  .00001313  00000+0  57244-4 0  99922 56826  43.0019  35.8047 0001147 262.2749  97.7972 15.27576562164871

JSON: /api/v1/satellites/56826 · /tle

For live sub-satellite position, see the globe view (requires WebGL).

§ Visibility from observer

Set your observer location to see the next 7 days of passes ≥ 10°. The values pass through the URL so the page stays shareable.

No JS? Fill the form by hand. The geolocation button needs JavaScript.